| time (UTC) | temp C | wind direction | speed KPH | gust KPH | rain 1hr cm | rain 24hr cm | rain mn cm | humidity % | barometer mb |
| 20260505070026 | 7 | 246 | 19.3 | 62.8 | 0.00 | 0.23 | 0.00 | 80 | 1007.4 |
| 20260505064523 | 7 | 60 | 17.7 | 56.3 | 0.00 | 0.23 | 0.00 | 80 | 1007.2 |
| 20260505063020 | 7 | 292 | 17.7 | 41.8 | 0.00 | 0.23 | 0.00 | 80 | 1006.7 |
| 20260505061519 | 7 | 192 | 17.7 | 49.9 | 0.00 | 0.23 | 0.00 | 79 | 1006.5 |
| 20260505060022 | 7 | 274 | 25.7 | 56.3 | 0.00 | 0.23 | 0.00 | 78 | 1006.3 |
| 20260505054512 | 7 | 279 | 30.6 | 53.1 | 0.00 | 0.23 | 0.00 | 78 | 1005.8 |
| 20260505053017 | 8 | 230 | 19.3 | 61.2 | 0.00 | 0.23 | 0.00 | 77 | 1005.8 |
| 20260505051508 | 8 | 293 | 20.9 | 51.5 | 0.00 | 0.23 | 0.00 | 76 | 1005.7 |
| 20260505041610 | 8 | 243 | 32.2 | 64.4 | 0.00 | 0.23 | 0.00 | 75 | 1005.2 |
| 20260505040100 | 8 | 238 | 20.9 | 48.3 | 0.00 | 0.23 | 0.00 | 76 | 1004.8 |
| 20260505034551 | 8 | 270 | 24.1 | 45.1 | 0.00 | 0.23 | 0.00 | 76 | 1004.8 |
| 20260505033050 | 8 | 201 | 17.7 | 51.5 | 0.00 | 0.23 | 0.00 | 75 | 1004.5 |
| 20260505031548 | 8 | 237 | 19.3 | 45.1 | 0.00 | 0.23 | 0.00 | 74 | 1004.2 |
| 20260505030043 | 9 | 236 | 17.7 | 41.8 | 0.00 | 0.23 | 0.00 | 72 | 1004.1 |
| 20260505024539 | 9 | 287 | 19.3 | 43.5 | 0.00 | 0.23 | 0.05 | 70 | 1003.9 |
| 20260505023044 | 9 | 221 | 12.9 | 41.8 | 0.00 | 0.23 | 0.05 | 69 | 1003.6 |
| 20260505021541 | 10 | 190 | 17.7 | 56.3 | 0.00 | 0.23 | 0.05 | 66 | 1003.5 |
| 20260505020037 | 10 | 248 | 19.3 | 43.5 | 0.00 | 0.23 | 0.05 | 64 | 1003.2 |
| 20260505014549 | 10 | 230 | 16.1 | 35.4 | 0.00 | 0.28 | 0.05 | 63 | 1003.0 |
| 20260505013039 | 10 | 255 | 14.5 | 43.5 | 0.00 | 0.28 | 0.05 | 61 | 1003.0 |
| 20260505011534 | 10 | 259 | 14.5 | 37.0 | 0.00 | 0.28 | 0.05 | 62 | 1002.9 |
| 20260505010033 | 10 | 302 | 24.1 | 53.1 | 0.00 | 0.28 | 0.05 | 59 | 1002.7 |
| 20260505004537 | 10 | 247 | 16.1 | 35.4 | 0.00 | 0.43 | 0.05 | 58 | 1002.3 |
| 20260505003030 | 10 | 272 | 17.7 | 48.3 | 0.00 | 0.43 | 0.05 | 57 | 1002.3 |
| 20260505001530 | 10 | 60 | 16.1 | 38.6 | 0.00 | 0.43 | 0.05 | 58 | 1002.3 |
| 20260505000033 | 9 | 233 | 16.1 | 38.6 | 0.00 | 0.43 | 0.05 | 57 | 1002.1 |
| 20260504234526 | 9 | 233 | 11.3 | 33.8 | 0.00 | 0.69 | 0.05 | 55 | 1001.8 |
| 20260504233025 | 9 | 256 | 9.7 | 30.6 | 0.00 | 0.69 | 0.05 | 56 | 1001.6 |
| 20260504231525 | 9 | 237 | 6.4 | 25.7 | 0.00 | 0.69 | 0.05 | 57 | 1001.6 |
| 20260504230022 | 9 | 60 | 12.9 | 37.0 | 0.00 | 0.69 | 0.05 | 58 | 1001.5 |
| 20260504224521 | 9 | 249 | 12.9 | 37.0 | 0.00 | 0.91 | 0.05 | 58 | 1001.4 |
| 20260504223021 | 9 | 272 | 11.3 | 38.6 | 0.00 | 0.91 | 0.05 | 58 | 1001.4 |
| 20260504221521 | 10 | 235 | 17.7 | 45.1 | 0.00 | 0.91 | 0.05 | 56 | 1001.0 |
| 20260504220017 | 10 | 273 | 16.1 | 54.7 | 0.00 | 0.91 | 0.05 | 56 | 1001.1 |
| 20260504214515 | 10 | 258 | 16.1 | 53.1 | 0.00 | 1.12 | 0.05 | 60 | 1000.8 |
| 20260504213035 | 10 | 223 | 22.5 | 48.3 | 0.00 | 1.12 | 0.05 | 58 | 1000.6 |
| 20260504211516 | 10 | 302 | 24.1 | 51.5 | 0.00 | 1.12 | 0.05 | 59 | 1000.4 |
| 20260504210012 | 10 | 224 | 25.7 | 61.2 | 0.00 | 1.12 | 0.05 | 58 | 1000.2 |
| 20260504204508 | 9 | 272 | 30.6 | 59.5 | 0.00 | 1.12 | 0.05 | 61 | 1000.2 |
| 20260504203009 | 9 | 300 | 29.0 | 61.2 | 0.00 | 1.12 | 0.05 | 60 | 999.7 |
| 20260504201505 | 8 | 265 | 30.6 | 78.9 | 0.00 | 1.12 | 0.05 | 63 | 999.6 |
| 20260504200101 | 8 | 95 | 38.6 | 74.0 | 0.00 | 1.12 | 0.05 | 64 | 999.1 |
| 20260504194606 | 8 | 335 | 24.1 | 67.6 | 0.00 | 1.12 | 0.05 | 70 | 998.9 |
| 20260504193108 | 7 | 308 | 32.2 | 66.0 | 0.00 | 1.12 | 0.05 | 71 | 998.6 |
| 20260504191552 | 7 | 313 | 24.1 | 49.9 | 0.00 | 1.12 | 0.05 | 75 | 998.6 |
| 20260504190105 | 6 | 250 | 27.4 | 62.8 | 0.00 | 1.12 | 0.05 | 76 | 998.3 |
| 20260504184559 | 6 | 256 | 24.1 | 59.5 | 0.00 | 1.12 | 0.05 | 77 | 998.3 |
| 20260504183047 | 6 | 310 | 33.8 | 72.4 | 0.00 | 1.12 | 0.05 | 77 | 998.2 |
| 20260504181544 | 6 | 60 | 22.5 | 57.9 | 0.00 | 1.12 | 0.05 | 82 | 997.9 |
| 20260504180040 | 5 | 250 | 27.4 | 67.6 | 0.00 | 1.12 | 0.05 | 83 | 998.0 |
| 20260504174537 | 5 | 3 | 20.9 | 72.4 | 0.00 | 1.12 | 0.05 | 86 | 997.8 |
| 20260504173044 | 5 | 267 | 22.5 | 57.9 | 0.00 | 1.12 | 0.05 | 88 | 996.8 |
| 20260504171533 | 4 | 300 | 25.7 | 61.2 | 0.00 | 1.12 | 0.05 | 90 | 997.1 |
| 20260504140111 | 2 | 249 | 22.5 | 61.2 | 0.03 | 1.09 | 0.05 | 96 | 992.2 |
| 20260504090125 | 2 | 289 | 20.9 | 37.0 | 0.10 | 1.07 | 0.15 | 94 | 978.0 |
| 20260504081556 | 2 | 267 | 8.0 | 29.0 | 0.05 | 0.99 | 0.08 | 94 | 976.4 |